GW5041 Weather Reports


time (UTC)temp
C
wind
direction
speed
KPH
gust
KPH
rain 1hr
cm
rain 24hr
cm
rain mn
cm
humidity
%
barometer
mb
20260505140229 8 345 1.6 9.7 0.18 2.90 2.90 92 1013.3
20260505130153 8 349 0.0 1.6 0.00 2.77 2.77 88 1012.8
20260505124642 8 350 0.0 3.2 0.00 2.77 2.77 87 1011.2
20260505124139 8 349 0.0 4.8 0.00 2.77 2.77 87 1011.0
20260505123635 8 335 4.8 9.7 0.00 2.77 2.77 87 1010.7
20260505123132 8 322 6.4 6.4 0.13 2.77 2.77 88 1010.4
20260505122628 8 335 0.0 1.6 0.13 2.77 2.77 87 1010.7
20260505122126 8 328 1.6 3.2 0.00 2.74 2.74 87 1011.0
20260505121622 8 345 0.0 1.6 0.00 2.74 2.74 86 1011.7
20260505121114 9 349 0.0 0.0 0.00 2.74 2.74 86 1011.6
20260505120610 8 334 1.6 4.8 0.00 2.74 2.74 86 1010.9
20260505120106 8 343 1.6 6.4 0.00 2.74 2.74 86 1011.1
20260505115606 8 354 0.0 1.6 0.00 2.74 2.74 87 1010.9
20260505115103 8 349 3.2 4.8 0.00 2.74 2.74 87 1010.5
20260505114600 8 347 1.6 3.2 0.00 2.74 2.74 88 1010.8
20260505114056 8 349 0.0 3.2 0.00 2.74 2.74 89 1010.8
20260505113553 8 344 3.2 4.8 0.18 2.74 2.74 90 1010.4
20260505113050 8 7 0.0 1.6 0.18 2.74 2.74 90 1010.6
20260505112546 8 350 0.0 4.8 0.00 2.72 2.72 90 1010.9
20260505112045 8 357 0.0 0.0 0.00 2.72 2.72 91 1011.0
20260505111543 8 332 0.0 3.2 0.00 2.72 2.72 90 1010.5
20260505111040 8 352 0.0 6.4 0.00 2.72 2.72 89 1010.5
20260505110537 8 339 0.0 1.6 0.00 2.72 2.72 88 1010.5
20260505102009 9 348 1.6 4.8 0.00 2.69 2.69 86 1010.6
20260505101507 9 343 1.6 3.2 0.00 2.69 2.69 86 1010.5
20260505101003 9 348 3.2 4.8 0.00 2.69 2.69 85 1010.2
20260505100501 9 325 1.6 4.8 0.00 2.69 2.69 84 1010.2
20260505095957 9 23 1.6 3.2 0.00 2.69 2.69 85 1010.5
20260505095453 9 349 0.0 3.2 0.00 2.69 2.69 84 1010.3
20260505094949 9 344 3.2 3.2 0.00 2.69 2.69 84 1010.4
20260505094446 9 341 3.2 4.8 0.00 2.69 2.69 85 1010.1
20260505093943 9 351 3.2 4.8 0.00 2.69 2.69 85 1010.1
20260505093439 9 16 3.2 4.8 0.00 2.69 2.69 85 1010.4
20260505092937 8 2 4.8 6.4 0.00 2.69 2.69 86 1010.1
20260505092434 8 5 1.6 4.8 0.00 2.69 2.69 86 1009.9
20260505091932 8 87 1.6 9.7 0.00 2.69 2.69 86 1009.9
20260505091429 8 358 6.4 9.7 0.00 2.69 2.69 87 1009.4
20260505090927 8 14 8.0 11.3 0.00 2.69 2.69 88 1009.4
20260505090425 8 351 3.2 16.1 0.00 2.69 2.69 90 1009.5
20260505085922 8 299 6.4 11.3 0.00 2.69 2.69 90 1009.4
20260505085420 8 5 1.6 3.2 0.00 2.69 2.69 91 1009.4
20260505084918 8 1 1.6 3.2 0.00 2.69 2.69 91 1009.1
20260505084416 8 165 3.2 9.7 0.00 2.69 2.69 91 1008.7
20260505083914 8 67 1.6 11.3 0.00 2.69 2.69 92 1008.3
20260505083411 8 1 1.6 4.8 0.00 2.69 2.69 92 1008.0
20260505082907 8 317 3.2 6.4 0.00 2.69 2.69 92 1008.2
20260505082403 8 189 3.2 4.8 0.00 2.69 2.69 93 1007.4
20260505081900 8 347 6.4 14.5 0.18 2.69 2.69 93 1007.0
20260505081356 8 303 4.8 11.3 0.48 2.69 2.69 93 1006.8
20260505080853 9 303 8.0 14.5 0.79 2.67 2.67 94 1006.6
20260505080349 9 1 1.6 3.2 1.07 2.62 2.62 94 1007.8
20260505075845 10 354 3.2 3.2 0.79 2.51 2.51 93 1009.5
20260505075342 10 348 0.0 3.2 0.48 2.41 2.41 93 1009.7
20260505074839 10 354 0.0 1.6 0.48 2.36 2.36 93 1010.5
20260505074336 10 352 3.2 3.2 0.61 2.34 2.34 93 1010.5
20260505073833 10 359 0.0 3.2 0.61 2.29 2.29 92 1011.1
20260505073331 10 353 0.0 3.2 0.61 2.24 2.24 91 1010.8
20260505072828 10 344 0.0 1.6 0.61 2.18 2.18 93 1010.8
20260505072324 10 60 3.2 3.2 0.48 2.13 2.13 93 1010.6
20260505071820 11 352 0.0 1.6 0.36 2.08 2.08 93 1010.9
20260505071317 11 353 0.0 0.0 0.18 2.06 2.06 92 1010.4
20260505070815 11 354 1.6 6.4 0.13 2.03 2.03 90 1009.6
20260505070311 11 349 0.0 3.2 0.13 2.03 2.03 91 1009.3
20260505065806 11 329 3.2 4.8 0.18 2.01 2.01 91 1008.9
20260505065304 11 10 1.6 3.2 0.18 2.01 2.01 93 1008.7
20260505064800 12 297 1.6 4.8 0.13 1.98 1.98 95 1008.8
20260505064258 12 359 0.0 0.0 0.30 1.98 1.98 94 1008.9
20260505063755 12 350 0.0 0.0 0.61 1.96 1.96 94 1008.9
20260505063252 12 324 0.0 1.6 0.61 1.93 1.93 93 1008.8
20260505062748 12 344 1.6 3.2 0.97 1.85 1.85 93 1008.6
20260505062246 12 346 0.0 1.6 2.16 1.80 1.80 94 1007.7
20260505061742 12 357 1.6 4.8 2.11 1.65 1.65 92 1008.2
20260505061240 12 331 3.2 6.4 3.25 1.42 1.42 91 1008.0
20260505060738 12 354 1.6 3.2 4.27 1.27 1.27 91 1007.9
20260505060235 13 341 1.6 11.3 2.34 0.81 0.81 89 1007.6
20260505055729 13 298 1.6 11.3 1.68 0.53 0.53 86 1007.3
20260505055226 14 61 3.2 4.8 2.39 0.43 0.43 82 1007.1
20260505054724 16 327 1.6 3.2 0.97 0.15 0.15 75 1006.8
20260505054222 17 358 1.6 3.2 0.18 0.03 0.03 69 1006.5
20260505053720 18 298 1.6 12.9 0.00 0.00 0.00 62 1006.4
20260505053215 20 343 3.2 20.9 0.00 0.00 0.00 53 1006.5
20260505052713 20 48 4.8 6.4 0.00 0.00 0.00 52 1006.4
20260505052209 21 255 4.8 11.3 0.00 0.00 0.00 52 1006.2
20260505051707 21 248 1.6 12.9 0.00 0.00 0.00 64 1006.1
20260505051205 21 40 3.2 9.7 0.00 0.00 0.00 67 1006.1
20260505050703 20 32 3.2 6.4 0.00 0.00 0.00 71 1005.8
20260505050201 20 332 1.6 4.8 0.00 0.00 0.00 73 1005.6
20260505041630 21 255 1.6 4.8 0.00 0.00 0.00 72 1005.1
20260505041128 21 322 3.2 4.8 0.00 0.00 0.00 72 1005.3
20260505040624 21 295 4.8 6.4 0.00 0.00 0.00 72 1005.4
20260505040122 21 340 1.6 3.2 0.00 0.00 0.00 73 1005.4
20260505035618 21 305 1.6 4.8 0.00 0.00 0.00 73 1005.5
20260505035114 21 282 4.8 9.7 0.00 0.00 0.00 73 1005.4
20260505034611 21 319 1.6 4.8 0.00 0.00 0.00 73 1005.4
20260505034108 21 340 1.6 3.2 0.00 0.00 0.00 73 1005.4
20260505033605 21 356 1.6 4.8 0.00 0.00 0.00 73 1005.3
20260505033104 21 320 0.0 4.8 0.00 0.00 0.00 73 1005.6
20260505032601 21 315 0.0 1.6 0.00 0.00 0.00 72 1005.5
20260505032057 21 298 3.2 3.2 0.00 0.00 0.00 72 1005.4
20260505031555 21 350 0.0 3.2 0.00 0.00 0.00 72 1005.3
20260505031051 21 269 3.2 4.8 0.00 0.00 0.00 72 1005.2
20260505030548 21 345 0.0 1.6 0.00 0.00 0.00 72 1005.2
20260505030043 21 353 0.0 0.0 0.00 0.00 0.00 71 1005.2
20260505025539 21 345 1.6 3.2 0.00 0.00 0.00 70 1005.1
20260505025038 22 349 0.0 0.0 0.00 0.00 0.00 69 1005.1
20260505024535 21 348 0.0 1.6 0.00 0.00 0.00 69 1005.0
20260505024032 21 282 3.2 4.8 0.00 0.00 0.00 71 1004.9
20260505023529 20 343 0.0 0.0 0.00 0.00 0.00 73 1004.9
20260505023027 20 345 0.0 0.0 0.00 0.00 0.00 74 1004.7
20260505022524 21 352 0.0 0.0 0.00 0.00 0.00 73 1004.7
20260505022021 21 352 0.0 0.0 0.00 0.00 0.00 72 1004.6
20260505021518 21 355 0.0 1.6 0.00 0.00 0.00 71 1004.5
20260505021015 21 349 0.0 0.0 0.00 0.00 0.00 72 1004.5
20260505020514 21 351 0.0 0.0 0.00 0.00 0.00 71 1004.6
20260505020012 21 352 0.0 0.0 0.00 0.00 0.00 71 1004.4
20260505015509 21 350 0.0 0.0 0.00 0.00 0.00 71 1004.3
20260505015006 21 350 0.0 0.0 0.00 0.00 0.00 70 1004.2
20260505014503 21 350 0.0 0.0 0.00 0.00 0.00 69 1004.2
20260505014000 21 350 0.0 0.0 0.00 0.00 0.00 68 1004.0
20260505013457 21 349 0.0 0.0 0.00 0.00 0.00 67 1003.9
20260505012954 21 353 0.0 0.0 0.00 0.00 0.00 66 1003.8
20260505012452 21 352 0.0 0.0 0.00 0.00 0.00 66 1003.9
20260505011949 22 351 0.0 0.0 0.00 0.00 0.00 66 1003.9
20260505011444 22 352 0.0 1.6 0.00 0.00 0.00 65 1003.7
20260505010942 22 357 0.0 0.0 0.00 0.00 0.00 64 1003.7
20260505010437 22 351 0.0 0.0 0.00 0.00 0.00 62 1003.6
20260505005933 23 351 0.0 0.0 0.00 0.00 0.00 60 1003.7
20260505005430 23 352 0.0 0.0 0.00 0.00 0.00 59 1003.5
20260505004928 23 352 0.0 0.0 0.00 0.00 0.00 58 1003.6
20260505004424 24 351 0.0 0.0 0.00 0.00 0.00 57 1003.3
20260505003921 25 352 0.0 0.0 0.00 0.00 0.00 57 1003.3
20260505003419 25 348 0.0 0.0 0.00 0.00 0.00 56 1003.4
20260505002915 25 351 0.0 0.0 0.00 0.00 0.00 55 1003.3
20260505002411 25 351 0.0 0.0 0.00 0.00 0.00 55 1003.1
20260505001910 25 349 0.0 0.0 0.00 0.00 0.00 55 1003.2
20260505001407 25 344 0.0 0.0 0.00 0.00 0.00 54 1003.2
20260505000904 25 336 0.0 1.6 0.00 0.00 0.00 52 1003.2
20260505000402 25 347 0.0 0.0 0.00 0.00 0.00 54 1003.3
20260504235858 26 351 0.0 0.0 0.00 0.00 0.00 54 1003.5
20260504235355 26 337 0.0 1.6 0.00 0.00 0.00 51 1003.3
20260504234851 26 351 0.0 1.6 0.00 0.00 0.00 52 1003.3
20260504234349 26 308 0.0 1.6 0.00 0.00 0.00 53 1003.4
20260504233846 26 349 0.0 3.2 0.00 0.00 0.00 50 1003.2
20260504233341 26 338 0.0 0.0 0.00 0.00 0.00 51 1003.3
20260504232838 26 20 1.6 3.2 0.00 0.00 0.00 50 1003.4
20260504232336 26 351 0.0 4.8 0.00 0.00 0.00 52 1003.4
20260504231832 26 196 4.8 9.7 0.00 0.00 0.00 50 1003.5
20260504231329 26 21 0.0 1.6 0.00 0.00 0.00 52 1003.5
20260504230825 26 37 1.6 1.6 0.00 0.00 0.00 52 1003.4
20260504230323 26 349 1.6 9.7 0.00 0.00 0.00 49 1003.4
20260504225821 27 18 1.6 9.7 0.00 0.00 0.00 49 1003.4
20260504225317 27 258 3.2 9.7 0.00 0.00 0.00 47 1003.3
20260504224815 27 128 3.2 6.4 0.00 0.00 0.00 46 1003.5
20260504224312 27 330 1.6 1.6 0.00 0.00 0.00 50 1003.4
20260504223808 27 332 1.6 4.8 0.00 0.00 0.00 48 1003.4
20260504223304 27 247 3.2 11.3 0.00 0.00 0.00 46 1003.5
20260504222801 27 14 1.6 3.2 0.00 0.00 0.00 50 1003.4
20260504222258 27 297 1.6 3.2 0.00 0.00 0.00 51 1003.3
20260504221755 27 305 3.2 9.7 0.00 0.00 0.00 48 1003.4
20260504221252 27 279 1.6 6.4 0.00 0.00 0.00 47 1003.5
20260504220749 27 318 1.6 3.2 0.00 0.00 0.00 51 1003.5
20260504220246 27 106 3.2 4.8 0.00 0.00 0.00 46 1003.6
20260504215743 27 13 0.0 1.6 0.00 0.00 0.00 51 1003.6
20260504215240 27 322 1.6 4.8 0.00 0.00 0.00 49 1003.7
20260504214736 27 292 3.2 6.4 0.00 0.00 0.00 50 1003.8
20260504214232 27 312 3.2 4.8 0.00 0.00 0.00 49 1003.8
20260504213729 27 310 4.8 9.7 0.00 0.00 0.00 48 1003.8
20260504213225 26 354 3.2 4.8 0.00 0.00 0.00 51 1003.7
20260504212722 27 198 3.2 12.9 0.00 0.00 0.00 48 1004.0
20260504212219 27 271 3.2 3.2 0.00 0.00 0.00 49 1003.8
20260504211717 27 291 4.8 6.4 0.00 0.00 0.00 47 1004.0
20260504211213 27 239 4.8 4.8 0.00 0.00 0.00 47 1004.0
20260504210710 27 353 3.2 9.7 0.00 0.00 0.00 46 1004.1
20260504210207 26 339 0.0 4.8 0.00 0.00 0.00 54 1004.0
20260504205704 26 299 3.2 6.4 0.00 0.00 0.00 48 1004.1
20260504205201 26 308 3.2 9.7 0.00 0.00 0.00 47 1004.3
20260504204700 27 318 3.2 6.4 0.00 0.00 0.00 46 1004.2
20260504204159 27 256 4.8 14.5 0.00 0.00 0.00 45 1004.2
20260504203657 27 78 3.2 11.3 0.00 0.00 0.00 49 1004.4
20260504203155 27 283 3.2 6.4 0.00 0.00 0.00 46 1004.4
20260504202654 27 320 6.4 11.3 0.00 0.00 0.00 44 1004.3
20260504202152 27 249 4.8 6.4 0.00 0.00 0.00 45 1004.2
20260504201648 27 348 0.0 9.7 0.00 0.00 0.00 55 1004.3
20260504201146 27 348 3.2 9.7 0.00 0.00 0.00 46 1004.2
20260504200643 28 284 3.2 9.7 0.00 0.00 0.00 48 1004.2
20260504200139 28 278 1.6 4.8 0.00 0.00 0.00 47 1004.5
20260504195635 28 268 3.2 6.4 0.00 0.00 0.00 45 1004.5
20260504195132 27 342 3.2 9.7 0.00 0.00 0.00 49 1004.5
20260504194629 28 271 6.4 9.7 0.00 0.00 0.00 46 1004.3
20260504194125 27 288 3.2 6.4 0.00 0.00 0.00 47 1004.3
20260504193621 27 268 1.6 11.3 0.00 0.00 0.00 48 1004.4
20260504193119 27 221 4.8 12.9 0.00 0.00 0.00 48 1004.5
20260504192617 27 283 3.2 9.7 0.00 0.00 0.00 48 1004.5
20260504192115 27 352 1.6 3.2 0.00 0.00 0.00 47 1004.4
20260504191613 27 142 3.2 6.4 0.00 0.00 0.00 50 1004.4
20260504191109 27 214 3.2 12.9 0.00 0.00 0.00 51 1004.5
20260504190605 27 239 8.0 11.3 0.00 0.00 0.00 46 1004.6
20260504185559 27 334 1.6 12.9 0.00 0.00 0.00 48 1004.6
20260504185055 26 295 3.2 6.4 0.00 0.00 0.00 47 1004.6
20260504184551 26 332 3.2 14.5 0.00 0.00 0.00 48 1004.7
20260504184046 27 157 3.2 6.4 0.00 0.00 0.00 47 1004.7
20260504183544 26 55 1.6 6.4 0.00 0.00 0.00 51 1004.7
20260504183042 26 309 3.2 4.8 0.00 0.00 0.00 51 1004.7
20260504182538 26 305 1.6 6.4 0.00 0.00 0.00 51 1004.6
20260504182036 26 290 1.6 11.3 0.00 0.00 0.00 53 1005.1
20260504181532 26 218 6.4 11.3 0.00 0.00 0.00 48 1005.1
20260504181031 26 170 4.8 11.3 0.00 0.00 0.00 49 1005.0
20260504180529 25 205 8.0 20.9 0.00 0.00 0.00 48 1005.0
20260504180028 25 278 4.8 6.4 0.00 0.00 0.00 49 1005.2
20260504175525 25 205 8.0 12.9 0.00 0.00 0.00 49 1005.3
20260504175022 25 221 4.8 11.3 0.00 0.00 0.00 48 1005.1
20260504174519 25 241 3.2 6.4 0.00 0.00 0.00 50 1005.2
20260504174016 26 357 3.2 6.4 0.00 0.00 0.00 48 1005.0
20260504173513 25 327 1.6 6.4 0.00 0.00 0.00 54 1005.1
20260504173011 25 292 3.2 11.3 0.00 0.00 0.00 50 1005.3
20260504172506 25 22 3.2 17.7 0.00 0.00 0.00 54 1005.4
20260504172003 25 30 1.6 11.3 0.00 0.00 0.00 53 1005.4
20260504171500 25 259 3.2 11.3 0.00 0.00 0.00 50 1005.5
20260504170957 25 240 6.4 11.3 0.00 0.00 0.00 49 1005.4
20260504170453 25 249 4.8 6.4 0.00 0.00 0.00 49 1005.5
20260504160413 24 207 9.7 11.3 0.00 0.00 0.00 49 1005.5
20260504150837 22 232 8.0 11.3 0.00 0.00 0.00 53 1005.6
20260504150333 22 277 9.7 12.9 0.00 0.00 0.00 52 1005.6